When you browse on this site, cookies collect data to enhance your experience and personalize the content and advertising you see.
Visit our Privacy Policy to learn more. By continuing to use the site, you agree to this use of cookies and data.
  • In United Kingdom
  • List of Countries
  • For 7 days
  • Water Temperature
  • Weather Map
  • Weather Widgets
  • user-avatar
    Login

    Hourly Weather Gherla

    Today, 15 September, Sunday

    Time Temperature Precipitation Wind Pressure Humidity
    00:00 +12°C° 0 mm 1 mps 746 mmHg 72%
    01:00 +12°C° 0 mm 1 mps 746 mmHg 75%
    02:00 +11°C° 0 mm 1 mps 746 mmHg 78%
    03:00 +10°C° 0 mm 0 mps 746 mmHg 80%
    04:00 +9°C° 0 mm 0 mps 746 mmHg 81%
    05:00 +9°C° 0 mm 0 mps 746 mmHg 83%
    06:00 +10°C° 0 mm 0 mps 746 mmHg 77%
    07:00 +13°C° 0 mm 1 mps 746 mmHg 70%
    08:00 +14°C° 0 mm 1 mps 746 mmHg 64%
    09:00 +18°C° 0 mm 1 mps 746 mmHg 55%
    10:00 +20°C° 0 mm 1 mps 745 mmHg 46%
    11:00 +23°C° 0 mm 1 mps 745 mmHg 37%
    12:00 +24°C° 0 mm 2 mps 745 mmHg 33%
    13:00 +25°C° 0 mm 3 mps 745 mmHg 29%
    14:00 +26°C° 0 mm 4 mps 744 mmHg 25%
    15:00 +26°C° 0 mm 4 mps 744 mmHg 25%
    16:00 +26°C° 0 mm 4 mps 743 mmHg 26%
    17:00 +25°C° 0 mm 4 mps 743 mmHg 26%
    18:00 +21°C° 0 mm 3 mps 743 mmHg 32%
    19:00 +18°C° 0 mm 2 mps 743 mmHg 39%
    20:00 +15°C° 0 mm 1 mps 743 mmHg 45%
    21:00 +15°C° 0 mm 1 mps 742 mmHg 48%
    22:00 +14°C° 0 mm 1 mps 742 mmHg 51%
    23:00 +13°C° 0 mm 1 mps 742 mmHg 53%

    Tomorrow, 16 September, Monday

    Time Temperature Precipitation Wind Pressure Humidity
    00:00 +11°C° 0 mm 0 mps 742 mmHg 56%
    01:00 +11°C° 0 mm 0 mps 742 mmHg 58%
    02:00 +10°C° 0 mm 0 mps 742 mmHg 61%
    03:00 +10°C° 0 mm 0 mps 741 mmHg 62%
    04:00 +10°C° 0 mm 0 mps 741 mmHg 64%
    05:00 +9°C° 0 mm 0 mps 741 mmHg 65%
    06:00 +11°C° 0 mm 0 mps 741 mmHg 59%
    07:00 +14°C° 0 mm 1 mps 741 mmHg 53%
    08:00 +16°C° 0 mm 1 mps 741 mmHg 46%
    09:00 +20°C° 0 mm 1 mps 740 mmHg 42%
    10:00 +22°C° 0 mm 1 mps 740 mmHg 38%
    11:00 +25°C° 0 mm 1 mps 740 mmHg 33%
    12:00 +26°C° 0 mm 1 mps 740 mmHg 32%
    13:00 +27°C° 0 mm 2 mps 739 mmHg 31%
    14:00 +28°C° 0 mm 3 mps 739 mmHg 30%
    15:00 +28°C° 0 mm 3 mps 738 mmHg 31%
    16:00 +28°C° 0 mm 4 mps 738 mmHg 32%
    17:00 +28°C° 0 mm 4 mps 737 mmHg 34%
    18:00 +25°C° 0 mm 3 mps 737 mmHg 41%
    19:00 +23°C° 0 mm 2 mps 737 mmHg 49%
    20:00 +19°C° 0 mm 2 mps 737 mmHg 56%
    21:00 +19°C° 0 mm 1 mps 737 mmHg 59%
    22:00 +19°C° 0 mm 1 mps 737 mmHg 61%
    23:00 +18°C° 0 mm 1 mps 737 mmHg 63%

    Day after tomorrow, 17 September, Tuesday

    Time Temperature Precipitation Wind Pressure Humidity
    00:00 +16°C° 0 mm 1 mps 736 mmHg 65%
    01:00 +16°C° 0 mm 1 mps 736 mmHg 68%
    02:00 +16°C° 0 mm 1 mps 736 mmHg 70%
    03:00 +16°C° 0 mm 1 mps 736 mmHg 70%
    04:00 +16°C° 0 mm 1 mps 735 mmHg 71%
    05:00 +16°C° 0 mm 1 mps 735 mmHg 71%
    06:00 +18°C° 0 mm 1 mps 735 mmHg 69%
    07:00 +19°C° 0 mm 1 mps 735 mmHg 67%
    08:00 +20°C° 0 mm 1 mps 735 mmHg 65%
    09:00 +21°C° 0 mm 2 mps 735 mmHg 59%
    10:00 +24°C° 0 mm 3 mps 735 mmHg 52%
    11:00 +26°C° 0 mm 4 mps 736 mmHg 46%
    12:00 +26°C° 0 mm 5 mps 735 mmHg 43%
    13:00 +27°C° 0 mm 6 mps 735 mmHg 41%
    14:00 +27°C° 0 mm 7 mps 735 mmHg 38%
    15:00 +27°C° 0 mm 7 mps 734 mmHg 38%
    16:00 +26°C° 0 mm 7 mps 734 mmHg 39%
    17:00 +26°C° 0 mm 7 mps 734 mmHg 39%
    18:00 +23°C° 0 mm 6 mps 734 mmHg 46%
    19:00 +20°C° 0 mm 5 mps 734 mmHg 53%
    20:00 +18°C° 0 mm 4 mps 734 mmHg 60%
    21:00 +17°C° 0 mm 4 mps 735 mmHg 61%
    22:00 +15°C° 0 mm 4 mps 735 mmHg 63%
    23:00 +14°C° 0 mm 4 mps 735 mmHg 64%

    18 September, Wednesday

    Time Temperature Precipitation Wind Pressure Humidity
    00:00 +13°C° 0 mm 4 mps 735 mmHg 68%
    01:00 +12°C° 0 mm 4 mps 735 mmHg 72%
    02:00 +10°C° 0 mm 3 mps 735 mmHg 76%
    03:00 +10°C° 0 mm 3 mps 736 mmHg 77%
    04:00 +9°C° 0 mm 3 mps 736 mmHg 78%
    05:00 +8°C° 0 mm 2 mps 736 mmHg 79%
    06:00 +9°C° 0 mm 3 mps 736 mmHg 72%
    07:00 +10°C° 0 mm 3 mps 737 mmHg 65%
    08:00 +11°C° 0 mm 4 mps 737 mmHg 58%
    09:00 +13°C° 0 mm 4 mps 738 mmHg 51%
    10:00 +14°C° 0 mm 4 mps 738 mmHg 44%
    11:00 +16°C° 0 mm 5 mps 738 mmHg 37%
    12:00 +16°C° 0 mm 5 mps 738 mmHg 35%
    13:00 +17°C° 0 mm 5 mps 738 mmHg 33%
    14:00 +19°C° 0 mm 5 mps 738 mmHg 30%
    15:00 +17°C° 0 mm 5 mps 738 mmHg 30%
    16:00 +17°C° 0 mm 5 mps 738 mmHg 30%
    17:00 +18°C° 0 mm 4 mps 738 mmHg 30%
    18:00 +14°C° 0 mm 3 mps 739 mmHg 36%
    19:00 +13°C° 0 mm 2 mps 739 mmHg 42%
    20:00 +10°C° 0 mm 1 mps 739 mmHg 48%
    21:00 +9°C° 0 mm 1 mps 740 mmHg 51%
    22:00 +8°C° 0 mm 1 mps 740 mmHg 55%
    23:00 +7°C° 0 mm 0 mps 740 mmHg 58%

    19 September, Thursday

    Time Temperature Precipitation Wind Pressure Humidity
    00:00 +6°C° 0 mm 0 mps 740 mmHg 61%
    01:00 +6°C° 0 mm 0 mps 740 mmHg 63%
    02:00 +5°C° 0 mm 0 mps 740 mmHg 66%
    03:00 +5°C° 0 mm 0 mps 740 mmHg 67%
    04:00 +4°C° 0 mm 0 mps 740 mmHg 68%
    05:00 +4°C° 0 mm 0 mps 739 mmHg 70%
    06:00 +6°C° 0 mm 0 mps 739 mmHg 63%
    07:00 +8°C° 0 mm 0 mps 739 mmHg 56%
    08:00 +9°C° 0 mm 0 mps 739 mmHg 49%
    09:00 +13°C° 0 mm 1 mps 739 mmHg 43%
    10:00 +15°C° 0 mm 1 mps 739 mmHg 37%
    11:00 +19°C° 0 mm 1 mps 739 mmHg 31%
    12:00 +18°C° 0 mm 2 mps 739 mmHg 29%
    13:00 +18°C° 0 mm 3 mps 739 mmHg 27%
    14:00 +19°C° 0 mm 4 mps 738 mmHg 25%
    15:00 +18°C° 0 mm 4 mps 738 mmHg 26%
    16:00 +18°C° 0 mm 4 mps 738 mmHg 26%
    17:00 +17°C° 0 mm 4 mps 738 mmHg 27%
    18:00 +14°C° 0 mm 4 mps 739 mmHg 32%
    19:00 +11°C° 0 mm 3 mps 739 mmHg 38%
    20:00 +9°C° 0 mm 2 mps 740 mmHg 43%
    21:00 +8°C° 0 mm 2 mps 740 mmHg 48%
    22:00 +8°C° 0 mm 1 mps 740 mmHg 53%
    23:00 +7°C° 0 mm 1 mps 740 mmHg 57%

    20 September, Friday

    Time Temperature Precipitation Wind Pressure Humidity
    00:00 +6°C° 0 mm 1 mps 740 mmHg 61%
    01:00 +6°C° 0 mm 1 mps 741 mmHg 65%
    02:00 +5°C° 0 mm 1 mps 741 mmHg 69%
    03:00 +5°C° 0 mm 1 mps 741 mmHg 70%
    04:00 +5°C° 0 mm 1 mps 741 mmHg 71%
    05:00 +5°C° 0 mm 1 mps 741 mmHg 73%
    06:00 +6°C° 0 mm 1 mps 741 mmHg 67%
    07:00 +8°C° 0 mm 1 mps 741 mmHg 62%
    08:00 +9°C° 0 mm 1 mps 741 mmHg 57%
    09:00 +10°C° 0 mm 2 mps 741 mmHg 51%
    10:00 +12°C° 0 mm 3 mps 742 mmHg 45%
    11:00 +14°C° 0 mm 4 mps 742 mmHg 39%
    12:00 +15°C° 0 mm 4 mps 742 mmHg 36%
    13:00 +15°C° 0 mm 5 mps 741 mmHg 34%
    14:00 +16°C° 0 mm 6 mps 741 mmHg 32%
    15:00 +15°C° 0.1 mm 5 mps 741 mmHg 34%
    16:00 +15°C° 0.1 mm 5 mps 741 mmHg 36%
    17:00 +14°C° 0.1 mm 5 mps 742 mmHg 38%
    18:00 +11°C° 0 mm 4 mps 742 mmHg 49%
    19:00 +9°C° 0 mm 3 mps 743 mmHg 59%
    20:00 +6°C° 0 mm 2 mps 743 mmHg 69%
    21:00 +5°C° 0 mm 2 mps 744 mmHg 73%
    22:00 +4°C° 0 mm 2 mps 744 mmHg 78%
    23:00 +4°C° 0 mm 1 mps 744 mmHg 82%
    Show more